Wind_Speed
38 38 40 44 44 42 45 50 56 59 62 64 63 63 62 63 63 65 64 63 66 63 64 62 61 60 64 58 55 52 52 39
41 43 44 48 53 57 60 60 62 63 65 65 59 60 62 64 65 66 65 67 66 63 63 64 62 66 65 63 63 57 53 50
43 46 48 50 51 51 55 59 61 64 63 61 62 65 67 67 67 68 67 67 66 66 65 65 68 70 68 67 66 62 59 56
43 45 46 47 52 53 55 57 57 59 62 63 68 68 67 67 68 70 69 68 69 69 70 71 69 70 70 71 70 64 64 59
51 53 55 56 59 60 62 62 61 60 63 66 68 69 71 73 72 71 71 73 71 72 75 74 74 74 71 71 69 68 65 60
44 48 51 54 55 57 59 61 65 68 70 71 74 75 77 77 73 71 69 70 71 73 70 72 74 73 72 72 74 71 68 67
48 50 52 54 57 59 62 66 69 70 71 72 74 75 74 75 74 77 76 76 79 79 76 79 79 79 77 74 72 74 72 74
44 47 50 53 56 59 64 68 71 74 75 75 76 78 80 80 82 83 84 85 86 84 82 81 78 81 83 81 81 81 80 81
52 51 56 61 63 62 64 64 67 71 77 79 80 81 83 85 87 89 91 91 91 90 88 87 88 88 85 84 82 82 82 84
62 65 68 67 74 74 76 81 78 76 77 79 84 88 90 92 93 94 94 94 95 96 96 97 96 96 94 89 89 90 91 92
70 71 75 78 79 81 83 85 85 84 83 82 85 88 91 92 92 91 95 98 100 100 100 99 97 96 94 97 97 96 97 95
75 80 85 84 87 92 89 91 89 89 93 94 94 94 96 94 96 95 95 96 101 99 99 102 99 96 98 98 101 99 96 90
87 90 91 92 95 96 96 92 94 95 100 100 100 100 100 98 98 98 99 98 101 103 104 102 100 100 99 99 94 87 82 82
92 97 99 104 107 108 100 98 99 102 101 105 105 102 99 99 100 100 97 97 101 102 100 101 100 90 85 81 80 74 71 69
97 101 106 110 110 106 99 103 105 107 106 104 100 99 98 98 98 96 99 98 93 91 88 85 85 77 70 66 64 64 60 60
103 106 108 111 109 109 109 108 105 101 99 99 99 100 95 91 96 89 85 83 80 78 76 75 70 64 60 57 55 56 57 56
109 114 114 112 111 109 105 106 101 98 100 98 94 88 92 90 86 85 80 77 75 70 66 63 56 54 51 49 49 50 49 50
117 118 119 115 107 103 102 97 97 94 94 93 92 91 86 83 79 74 71 65 60 58 56 53 48 46 44 45 44 43 42 45
121 120 113 109 103 96 94 91 92 91 92 92 88 86 81 75 69 63 57 55 52 51 49 44 44 43 43 42 37 37 38 38
120 112 109 102 96 92 90 90 90 88 89 86 83 78 70 63 59 57 54 52 52 47 46 42 43 42 43 39 36 36 37 36
Wind_Direction
274 279 278 278 274 275 282 284 283 284 288 292 297 297 294 294 294 293 293 294 296 297 297 298 298 300 303 303 303 304 303 299
270 273 277 280 279 278 280 281 287 289 291 293 293 294 295 295 294 291 291 292 292 293 292 293 295 297 299 301 302 301 300 296
278 279 279 276 279 281 278 282 283 286 291 292 294 295 294 292 290 289 291 291 291 289 289 290 293 296 296 294 297 294 297 294
279 279 278 275 277 277 277 280 286 288 290 288 288 287 287 286 286 287 288 288 287 289 290 291 290 289 291 291 292 290 291 289
279 278 277 279 279 278 279 281 284 283 282 282 281 284 285 285 284 284 283 285 288 289 288 288 288 288 289 287 289 287 287 286
292 292 292 294 294 290 287 284 282 282 282 281 282 283 287 289 289 289 288 288 288 288 288 287 289 286 286 284 285 285 283 283
285 285 283 282 282 281 280 279 279 281 284 285 286 288 288 288 286 288 285 284 285 285 287 285 288 287 290 286 282 280 278 279
291 294 293 295 297 294 290 288 287 285 285 286 287 287 287 286 285 285 284 284 285 286 288 288 287 288 288 285 281 278 278 277
306 302 309 308 306 304 306 307 304 304 294 289 288 288 287 286 285 285 285 284 286 286 286 286 286 286 286 284 280 278 276 276
300 303 303 307 308 307 306 306 306 304 304 295 290 288 286 286 284 283 283 282 283 284 284 285 285 285 284 281 280 277 276 275
296 303 307 307 306 307 306 306 304 299 295 291 289 287 288 288 288 287 284 283 282 281 282 285 285 285 282 280 279 276 274 274
301 307 310 305 307 308 305 305 302 293 294 292 290 289 291 288 288 288 288 287 284 283 285 285 283 281 279 279 276 274 273 270
307 309 307 305 309 307 305 300 294 292 289 291 291 290 290 289 287 288 288 287 286 285 286 284 282 282 278 278 276 273 268 264
304 305 307 309 308 308 302 298 294 291 290 291 290 290 288 287 288 290 289 289 286 284 282 281 281 280 277 276 274 271 267 262
303 306 309 309 306 300 295 294 294 290 290 290 290 288 289 288 288 286 287 287 285 284 283 282 280 279 277 274 270 269 266 261
303 304 302 300 299 297 294 293 293 292 291 291 290 289 287 287 288 288 289 287 285 285 282 281 279 276 272 269 265 264 263 260
300 301 302 301 301 295 294 293 292 291 291 290 290 291 293 292 291 291 288 285 284 281 279 276 272 269 268 266 264 263 263 262
302 301 300 301 298 296 294 292 291 291 292 293 293 291 292 292 291 289 287 283 281 278 274 271 265 266 263 262 262 262 260 257
299 301 301 298 295 295 294 292 292 293 293 292 292 292 291 291 289 286 283 281 279 274 269 265 263 262 259 255 257 258 261 254
300 298 297 297 296 295 295 293 293 293 292 292 292 291 290 289 288 285 283 278 275 270 265 260 260 256 250 253 251 252 254 257
Height
10738 10737 10736 10735 10733 10731 10730 10729 10728 10725 10723 10720 10717 10714 10713 10711 10708 10705 10704 10702 10700 10697 10695 10693 10691 10690 10690 10692 10693 10692 10691 10693
10730 10729 10728 10726 10724 10723 10722 10719 10717 10715 10712 10710 10707 10704 10700 10698 10696 10693 10692 10690 10689 10687 10684 10682 10680 10679 10678 10679 10680 10681 10682 10681
10720 10720 10719 10717 10715 10714 10711 10709 10706 10703 10699 10695 10693 10690 10687 10686 10684 10681 10680 10677 10676 10674 10672 10669 10667 10666 10666 10666 10668 10668 10670 10670
10711 10709 10707 10706 10704 10702 10699 10696 10693 10690 10686 10684 10681 10679 10676 10673 10670 10668 10666 10663 10661 10659 10657 10656 10654 10653 10653 10653 10653 10653 10655 10657
10702 10699 10697 10695 10692 10689 10686 10683 10680 10677 10674 10672 10669 10665 10661 10658 10655 10652 10649 10646 10644 10642 10640 10639 10639 10637 10637 10636 10637 10637 10638 10642
10690 10689 10686 10684 10680 10678 10675 10672 10669 10666 10662 10660 10656 10650 10646 10642 10638 10634 10631 10629 10627 10624 10622 10620 10620 10620 10620 10619 10620 10620 10621 10623
10681 10679 10676 10673 10670 10668 10665 10661 10657 10654 10649 10644 10638 10633 10630 10625 10621 10618 10614 10612 10610 10608 10605 10602 10600 10599 10598 10599 10599 10600 10602 10605
10668 10666 10664 10662 10658 10654 10650 10646 10642 10637 10632 10626 10621 10616 10612 10608 10603 10599 10595 10593 10590 10587 10585 10583 10582 10580 10579 10578 10578 10578 10580 10582
10655 10652 10650 10646 10641 10637 10633 10629 10625 10620 10614 10608 10603 10597 10592 10588 10583 10578 10574 10571 10568 10565 10562 10562 10561 10559 10557 10555 10554 10553 10556 10556
10641 10637 10634 10629 10625 10620 10615 10609 10604 10600 10595 10589 10583 10578 10572 10568 10563 10557 10552 10549 10546 10542 10539 10537 10536 10534 10534 10532 10529 10528 10527 10528
10627 10623 10619 10613 10608 10602 10595 10589 10585 10580 10574 10568 10562 10556 10551 10546 10540 10534 10528 10523 10520 10517 10514 10513 10510 10509 10508 10504 10501 10498 10499 10501
10609 10604 10599 10593 10587 10580 10573 10567 10562 10556 10550 10543 10537 10531 10525 10519 10513 10508 10503 10497 10493 10488 10486 10482 10481 10482 10478 10476 10469 10469 10471 10470
10584 10580 10575 10570 10564 10557 10551 10545 10539 10533 10526 10518 10511 10504 10498 10493 10487 10482 10476 10471 10466 10461 10457 10453 10448 10451 10449 10442 10435 10438 10441 10441
10570 10564 10557 10549 10541 10534 10529 10522 10514 10506 10499 10493 10485 10478 10472 10467 10461 10456 10450 10443 10437 10432 10429 10423 10420 10418 10417 10416 10409 10412 10413 10417
10550 10541 10534 10527 10519 10512 10505 10496 10488 10480 10474 10467 10459 10452 10447 10441 10436 10430 10423 10416 10407 10404 10400 10395 10391 10393 10393 10392 10391 10388 10391 10397
10524 10520 10514 10507 10498 10488 10479 10470 10461 10453 10446 10439 10433 10428 10423 10415 10410 10402 10396 10389 10384 10380 10376 10374 10372 10371 10372 10373 10374 10373 10373 10378
10505 10499 10490 10481 10472 10461 10451 10442 10433 10426 10420 10413 10407 10400 10394 10387 10382 10375 10371 10367 10363 10359 10357 10355 10354 10354 10355 10357 10359 10359 10362 10362
10482 10473 10463 10453 10443 10434 10425 10417 10410 10402 10395 10387 10380 10374 10368 10363 10358 10354 10350 10345 10343 10341 10340 10340 10339 10340 10343 10344 10346 10347 10350 10351
10457 10447 10436 10427 10418 10410 10403 10394 10386 10378 10371 10363 10356 10351 10346 10342 10338 10335 10331 10328 10327 10325 10326 10326 10325 10328 10330 10333 10335 10335 10337 10341
10431 10420 10411 10401 10393 10385 10377 10370 10363 10355 10348 10341 10335 10329 10324 10322 10319 10317 10315 10313 10312 10312 10312 10313 10313 10315 10317 10320 10323 10325 10326 10328